Aérodrome :
LOGIN :

S'inscrire | Disclaimer

   EN    FR    IT 

 










Légende :    VFR   VFR Marginal   IFR   IFR Intensif   IFR Très Intensif
Visi : 
Plafond : 
>= 8 km
>= 3000ft
5 à 8 km
1000 à 3000 ft
1500m à 5 km
500 à 1000 ft
800 à 1500m
200 à 500 ft
< 800m
< 200 ft
Symboles :   Orages  Brouillard  Fortes neiges  Fortes précipitations  Vent > 20 kt
SIGMETs :   Divers  Orages  Givrage  Turbulence  Onde Orograph.  Cendres Volcan.







- Altitude de l'aérodrome : 156 ft
- Code IATA : LCC


LIBN - Lecce Galatine (military)

DERNIER METAR :
  • 181655Z 01004KT CAVOK 19/18 Q1014 RMK FEW FEW100 VIS MIN 9999 WIND THR14 01003KT WIND THR32 02003KT BLU

METARs EXPIRÉS :
  • 181555Z 02005KT CAVOK 21/19 Q1013 RMK FEW FEW110 VIS MIN 9999 WIND THR14 03005KT WIND THR32 02006KT BLU
  • 181455Z 03007KT 9999 FEW025 22/18 Q1013 RETS RMK SCT VIS MIN 9999 WIND THR14 03007KT WIND THR32 02008KT BLU

TAF TAF LIBN
Valide du 18 à 15h jusqu'au 19 à 00h UTC


181400Z 1815/1824 VRB03KT 9999 FEW020
TEMPO 1815/1818 22010KT 7000 TSRA FEW018CB SCT020
Pas de NOTAMs connus pour ce terrain.



MET'MAP, la Météo Aéronautique d'un coup d'oeil ! - Copyright ORBIFLY Décembre 2007 - Disclaimer

ORBIFLY MET'MAP TEAM :

Programmation & Développement : Alexandra Zaïnal
Conception & Développement : Baudouin d'Aumeries
Co-Programmation & Développement : Marc-Olivier Méhu
Soutien technique & logistique : Manuel Goepfert

Contact : metmap@orbifly.com




SOURCES & CREDITS :

   NOAA